Location: Newark
(48.8833°N, 0.9236°W)
Time: 08:39:36
(UTC+00:00)

Tiros 1 despin weight - Pass Details

Date: 23 November 2019
Orbit: 594 x 642 km, 48.2° (Epoch: 07 December)

Event Time Altitude Azimuth Distance (km) Brightness Sun altitude
Rises 11:56:40 0° 226° (SW) 2,821 ? 20.8°
Reaches altitude 10° 11:59:04 10° 218° (SW) 1,920 ? 20.7°
Maximum altitude 12:03:05 36° 152° (SSE) 949 ? 20.7°
Drops below altitude 10° 12:07:08 10° 86° (E) 1,932 ? 20.7°
Sets 12:09:34 0° 77° (ENE) 2,841 ? 20.6°
